Regional Weather Roundup
Issued by NWS Sioux Falls, SD

Home | Current Version | Previous Version | Text Only | Print | Product List | Glossary On
Versions: 1 2 3 4 5 6 7 8 9 10 11 12 13 14 15 16 17 18 19 20 21 22 23 24 25 26 27 28 29 30 31 32 33 34 35 36 37 38 39 40 41 42 43 44 45 46 47 48 49 50
000
ASUS43 KFSD 222310
RWRFSD

WEATHER ROUNDUP FOR SE SOUTH DAKOTA/SW MINNESOTA/NW IOWA
NATIONAL WEATHER SERVICE SIOUX FALLS SD
500 PM CST WED FEB 22 2017

NOTE: "FAIR" INDICATES FEW OR NO CLOUDS BELOW 12,000 FEET WITH NO
SIGNIFICANT WEATHER AND OR OBSTRUCTIONS TO VISIBILITY.


SDZ038>040-050-052>070-230000-
SOUTHEAST SOUTH DAKOTA

CITY           SKY/WX    TMP DP  RH WIND       PRES   REMARKS
BROOKINGS      CLOUDY    46  39  76 NW21      29.70R
CHAMBERLAIN    MOSUNNY   53  38  55 NW13G24   29.76R
HURON          MOSUNNY   44  39  82 N21       29.76R
MADISON        MOCLDY    46  45  93 NW24G32   29.72R
MITCHELL       SUNNY     53  40  61 NW15G25   29.73R
SIOUX FALLS    MOSUNNY   54  42  64 NW23G31   29.68R
WINNER         FAIR      56  34  43 N17       29.75R
YANKTON        SUNNY     59  37  44 NW16G23   29.70R
$$

MNZ071-072-080-081-089-090-097-098-230000-
SOUTHWEST MINNESOTA

CITY           SKY/WX    TMP DP  RH WIND       PRES   REMARKS
FAIRMONT       CLEAR     61  45  55 W12       29.60R
JACKSON          N/A     57  43  58 W15       29.63R
LUVERNE        MOSUNNY   50  41  71 NW15      29.68R
MARSHALL       MOCLDY    44  39  82 NW20      29.68R
MONTEVIDEO     CLOUDY    41  37  87 N18G25    29.71R
PIPESTONE      MOSUNNY   52  37  58 NW16G25   29.67R
REDWOOD FALLS  PTCLDY    47  39  74 NW16G23   29.64R
TRACY          PTCLDY    44  40  88 NW17      29.67R
WINDOM         CLEAR     50  45  81 NW20      29.64R
WORTHINGTON    CLEAR     52  45  77 NW20      29.65R
$$

IAZ001>003-012>014-020>022-031-032-NEZ013-014-SDZ071-230000-
NORTHWEST IOWA

CITY           SKY/WX    TMP DP  RH WIND       PRES   REMARKS
CHEROKEE       SUNNY     62  41  46 NW13G24   29.64R
DENISON        SUNNY     64  37  36 NW13G24   29.63S
ESTHERVILLE    CLEAR     58  46  64 W18       29.61R
LE MARS        SUNNY     59  43  55 NW20      29.68R
ORANGE CITY    SUNNY     57  43  58 NW17G24   29.68R
SHELDON        SUNNY     55  46  71 NW18G24   29.65R
SIOUX CITY     SUNNY     64  37  36 NW17      29.67R
SPENCER        CLEAR     59  42  53 NW20      29.64R
STORM LAKE     SUNNY     61  41  48 NW17      29.64S
$$

ABBREVIATIONS USED IN REMARKS
   TC - TEMPERATURE IN CELSIUS
  WCI - WIND CHILL INDEX
   HX - HEAT INDEX
  VSB - VISIBILITY





USA.gov is the U.S. government's official web portal to all federal, state and local government web resources and services.